Location: Kaiser
(34.0939°N, 117.4889°W)
Time: 02:19:37
(UTC+00:00)

X-37B - Pass Details

Date: 29 October 2020
Orbit: 384 x 389 km, 45.0° (Epoch: 12 November)

Event Time Altitude Azimuth Distance (km) Brightness Sun altitude
Rises 13:18:24 0° 202° (SSW) 2,249 4.3 -10.7°
Reaches altitude 10° 13:20:54 10° 181° (S) 1,401 3.5 -10.2°
Maximum altitude 13:23:05 17° 137° (SE) 1,051 3.5 -9.8°
Drops below altitude 10° 13:25:16 10° 93° (E) 1,409 5.0 -9.3°
Sets 13:27:48 0° 73° (ENE) 2,267 5.7 -8.8°
